Regional Weather Roundup
Issued by NWS

Home | Current Version | Previous Version | Text Only | Print | Product List | Glossary Off
Versions: 1 2 3 4 5 6 7 8 9 10 11 12 13 14 15 16 17 18 19 20 21 22 23 24 25 26 27

000
ASUS45 KBOU 250907
RWRCO

WEATHER ROUNDUP FOR COLORADO
NATIONAL WEATHER SERVICE DENVER/BOULDER CO
300 AM MDT SAT OCT 25 2014

NOTE: "FAIR" INDICATES FEW OR NO CLOUDS BELOW 12000 FEET WITH NO
SIGNIFICANT WEATHER AND/OR OBSTRUCTIONS TO VISIBILITY.

COZ001>005-013-030-031-251000-
...NORTHWEST COLORADO...

CITY           SKY/WX    TMP DP  RH WIND       PRES   REMARKS
CRAIG          CLEAR     32  25  75 CALM      30.32S
HAYDEN         CLEAR     41  25  52 E12       30.33S
MEEKER         CLEAR     39  27  62 VRB3      30.33S
MOUNT WERNER   NOT AVBL
STEAMBOAT SPGS CLEAR     37  26  65 CALM      30.36S
WALDEN         CLEAR     32  19  59 SE8       30.40S WCI  25
$$

COZ006>008-011-251000-
...WEST CENTRAL VALLEYS...

CITY           SKY/WX    TMP DP  RH WIND       PRES   REMARKS
GRAND JUNCTION CLEAR     46  33  60 E5        30.25S
MONTROSE       CLEAR     43  30  60 S9        30.34R
EAGLE          CLEAR     34  28  80 E5        30.42S WCI  30
RIFLE          CLEAR     39  31  72 CALM      30.32S
DELTA          CLEAR     48  29  48 NE7       30.31S
NUCLA          CLEAR     45  27  49 SE6       30.37R
$$

COZ017>023-064>068-251000-
...SOUTHWEST COLORADO...

CITY           SKY/WX    TMP DP  RH WIND       PRES   REMARKS
DURANGO        PTCLDY    38  32  79 N5        30.37S
CORTEZ         CLEAR     33  27  78 NE5       30.33F WCI  29
PAGOSA SPRINGS PTCLDY    40  31  72 CALM      30.44S
TELLURIDE      CLEAR     44  22  41 SE6       30.51S
WOLF CREEK PAS PTCLDY    37  27  65 SW13        N/A
$$

COZ009-010-012-014-032>034-037-058>063-251000-
...CENTRAL COLORADO...

CITY           SKY/WX    TMP DP  RH WIND       PRES   REMARKS
ASPEN          CLEAR     36  21  54 SW12      30.41F
BUENA VISTA    CLEAR     35  21  58 NW3       30.45S
COPPER MTN     CLEAR     43   7  22 S14       30.64S
BERTHOUD PASS  FAIR      34  32  93 NW24G30   30.64S WCI  21
COTTONWOOD PAS CLEAR     50   0  12 NW6       30.53S
GUNNISON       CLEAR     28  18  64 CALM      30.50S
KREMMLING      CLEAR     30  23  74 CALM        N/A
LEADVILLE      CLEAR     28  17  63 CALM      30.52F
MONARCH PASS   PTCLDY    37   9  30 W22       30.74S
SALIDA         CLEAR     42  22  44 CALM      30.50S
SUNLIGHT       CLEAR     45  19  36 CALM      30.58F
WILKERSON PASS NOT AVBL
$$

COZ069>075-251000-
...SAN LUIS VALLEY/SANGRE DE CRISTO MOUNTAINS...

CITY           SKY/WX    TMP DP  RH WIND       PRES   REMARKS
ALAMOSA        MOCLDY    29  23  78 CALM      30.41S
LA VETA PASS   PTCLDY    45  19  36 S6        30.54S
SAGUACHE       PTCLDY    41  21  45 NW14      30.43S
$$

COZ035-036-038>040-251000-
...NORTHERN COLORADO FRONT RANGE...

CITY           SKY/WX    TMP DP  RH WIND       PRES   REMARKS
DENVER INTL AP CLEAR     55  23  28 SW13      30.21R
DMNS CITY PARK   N/A     53  24  31 S6        30.21S
AURORA         CLEAR     53  23  31 S8        30.23S
FRONT RANGE AP CLEAR     55  27  33 SW13      30.22S
ERIE MUNI ARPT CLEAR     39  30  70 NW3       30.20R
BOULDER MUN AP CLEAR     52  25  35 NW6       30.20R
CENTENNIAL     CLEAR     50  23  34 S9        30.24S
BROOMFIELD     CLEAR     61  19  20 CALM      30.22F
FORT COLLINS   PTCLDY    46  30  53 CALM      30.21R
LONGMONT       PTCLDY    41  29  62 CALM      30.21S
$$

COZ041-046-047-076>085-087-088-251000-
...PIKES PEAK/PALMER DIVIDE AND SOUTHERN FOOTHILLS...

CITY           SKY/WX    TMP DP  RH WIND       PRES   REMARKS
COLO. SPRINGS  CLEAR     51  24  34 N9        30.27F
A. F. ACADEMY  CLEAR     44  23  44 N8        30.29S
ELLICOTT       NOT AVBL
FALCON         CLEAR     45  23  40 NW9       30.31F
FORT CARSON    CLEAR     52  24  34 NW12      30.24S
LIMON          CLEAR     39  30  70 N5        30.22S
MONUMENT HILL  PTCLDY    50  19  29 SW9       30.30F
TRINIDAD       PTCLDY    50  29  44 W15       30.25S
$$

COZ042>045-048>051-090-091-251000-
...NORTHEAST COLORADO...

CITY           SKY/WX    TMP DP  RH WIND       PRES   REMARKS
GREELEY ARPT   PTCLDY    36  25  64 NW6       30.20R
AKRON          CLEAR     48  28  46 W10       30.16F
BURLINGTON     CLEAR     45  32  60 W8        30.14F
WRAY           CLEAR     42  32  66 SW7       30.12R
STERLING       CLEAR     41  34  75 CALM      30.14S
HOLYOKE        CLEAR     46  32  57 W8        30.11S
FORT MORGAN    CLEAR     46  28  48 CALM      30.17S
$$

COZ086-089-092>099-251000-
...SOUTHEAST COLORADO...

CITY           SKY/WX    TMP DP  RH WIND       PRES   REMARKS
PUEBLO         CLEAR     52  27  38 W5        30.18S
LA JUNTA       CLEAR     48  32  53 W10       30.14S
LAMAR          CLEAR     41  35  79 NW6       30.10S
SPRINGFIELD      N/A     49  35  58 W6        30.15S
$$



USA.gov is the U.S. government's official web portal to all federal, state and local government web resources and services.